Location: Eschentzwiller
(47.7125°N, 7.3981°E)
Time: 04:31:12
(UTC+00:00)

Cosmos 1689 Rocket - Pass Details

Date: 27 October 2020
Orbit: 360 x 374 km, 97.5° (Epoch: 01 December)

Event Time Altitude Azimuth Distance (km) Brightness Sun altitude
Exits shadow 17:13:10 - 23° (NNE) 2,114 5.5 -9.5°
Reaches altitude 10° 17:15:02 10° 34° (NE) 1,357 4.4 -9.8°
Maximum altitude 17:17:37 29° 97° (E) 701 2.8 -10.2°
Drops below altitude 10° 17:20:10 10° 161° (SSE) 1,342 4.7 -10.6°
Sets 17:22:13 0° 173° (S) 2,182 5.9 -11.0°
